Regional Weather Roundup
Issued by NWS

Home | Current Version | Previous Version | Graphics & Text | Print | Product List | Glossary On
Versions: 1 2 3 4 5 6 7 8 9 10 11 12 13 14 15 16 17 18 19 20 21 22 23 24 25 26 27 28 29 30 31 32 33 34 35 36 37 38 39 40 41 42 43 44 45 46 47 48 49 50
000
ASUS44 KMEG 230610
RWRTN
TENNESSEE HOURLY STATE WEATHER ROUNDUP
NATIONAL WEATHER SERVICE MEMPHIS TN
100 AM CDT MON APR 23 2018

TNZ002-004-019-021-049-052-054-088>092-230700-
WEST TENNESSEE

CITY           SKY/WX    TMP DP  RH WIND       PRES   REMARKS
MEMPHIS INTL   LGT RAIN  61  61 100 W6        29.80F
NWS MEMPHIS      N/A     59 N/A N/A MISG        N/A
JACKSON        CLOUDY    58  58 100 W6        29.77S
DYERSBURG      RAIN      58  57  97 NE5       29.80F
SOMERVILLE     CLOUDY    59  59 100 NW5       29.77F
COVINGTON      CLOUDY    59  57  94 NW5       29.79F
UNION CITY     CLOUDY    57  57 100 NE14      29.77F FOG
BOLIVAR        CLOUDY    59  57  94 W5        29.77F
PARIS          CLOUDY    57  55  94 NE13      29.79F FOG
HUNTINGDON       N/A     57  57 100 NE12      29.75F FOG
LEXINGTON      CLOUDY    57  57 100 CALM      29.73F FOG
SELMER         CLOUDY    57  57 100 W6        29.76S
SAVANNAH       CLOUDY    57  57 100 W6        29.75R
$$

TNZ008-025-027-028-033-062-065-066-230700-
NORTH MIDDLE TENNESSEE

CITY           SKY/WX    TMP DP  RH WIND       PRES   REMARKS
NASHVILLE      CLOUDY    58  55  90 E16G26    29.86F
PORTLAND       CLOUDY    57  55  94 E10       29.91F
CLARKSVILLE    LGT RAIN  58  54  86 E20G28    29.85S
SMYRNA         CLOUDY    57  55  93 E9        29.87F
COOKEVILLE     CLOUDY    57  54  88 VRB7G16   29.93F HAZE
LIVINGSTON     MOCLDY    55  52  88 NE6G16    29.98S
GALLATIN       CLOUDY    57  55  94 E10       29.92F FOG
CROSSVILLE     RAIN      54  50  86 SE13G21   30.00F
ROCKWOOD       CLOUDY    54  52  94 E13G18    30.00F FOG
$$

TNZ061-075-076-078-094-096-097-230700-
SOUTH MIDDLE TENNESSEE

CITY           SKY/WX    TMP DP  RH WIND       PRES   REMARKS
LEWISBURG      CLOUDY    59  55  88 E13G21    29.80F
FAYETTEVILLE   CLOUDY    61  55  82 SE17G32   29.81F
TULLAHOMA      MOCLDY    59  55  88 SE16G28   29.85F
WINCHESTER     CLOUDY    57  55  94 SE20G33   29.87F FOG
MCMINNVILLE    CLOUDY    57  54  88 E9        29.91S FOG
COLUMBIA       CLOUDY    59  59 100 E14G28    29.76F FOG
SHELBYVILLE    CLOUDY    59  55  88 SE16G26   29.83F
$$

TNZ017-018-042-046-047-230700-
NORTHEAST TENNESSEE

CITY           SKY/WX    TMP DP  RH WIND       PRES   REMARKS
TRI CITIES     LGT RAIN  60  48  64 E12G18    30.15F
ELIZABETHTON   CLOUDY    59  46  63 E9G17     30.16F
$$

TNZ012-013-036-069-073-074-230700-
CENTRAL EAST TENNESSEE

CITY           SKY/WX    TMP DP  RH WIND       PRES   REMARKS
KNOXVILLE      LGT RAIN  56  54  93 N7        30.03S
OAK RIDGE      LGT RAIN  55  55 100 CALM      30.07R
DOWNTOWN KNOXV CLOUDY    55  54  94 CALM      30.05S
GATLINBURG     MOCLDY    61  48  63 NE12      30.02F
MORRISTOWN     MOCLDY    57  50  77 E12G20    30.08S
JACKSBORO      CLOUDY    55  52  88 NE5       30.10S
$$

TNZ083-085-099-230700-
SOUTHEAST TENNESSEE

CITY           SKY/WX    TMP DP  RH WIND       PRES   REMARKS
CHATTANOOGA    LGT RAIN  58  55  90 SE7       29.98R FOG
DAYTON         CLOUDY    57  57 100 VRB5      29.99F FOG
$$

SKY/WX REPORTED AS FAIR MEANS FEW OR NO CLOUDS BELOW
12 THOUSAND FEET.





USA.gov is the U.S. government's official web portal to all federal, state and local government web resources and services.